User: anonymous   Login
Location: Unspecified
(0.0000°N, 0.0000°E)
Time: 00:48:57
(UTC+01:00)
Language:

Ariane 42L R/B - Orbit

View from above orbital plane
View from above orbital plane
View from above satellite
View from above satellite

Ground track
Ground track

The orbit data is extracted from the following two-line orbital elements,

1 26299U 00020B   16338.83650418  .00001357  00000-0  43254-3 0  9993
2 26299   7.4613 111.7030 5936170 260.6451  31.6234  4.10976991211053
Epoch (UTC): 03 December 2016 20:04:33
Eccentricity: 0.5936170
inclination: 7.4613°
perigee height: 312 km
apogee height: 19858 km
right ascension of ascending node: 111.7030°
argument of perigee: 260.6451°
revolutions per day: 4.10976991
mean anomaly at epoch: 31.6234°
orbit number at epoch: 21105

The dashed part of the orbit path shows where the satellite is in the earth's shadow,  

DLR